Terminal Aerodrome Forecast
Issued by NWS

Home | Current Version | Previous Version | Text Only | Print | Product List | Glossary On
Versions: 1 2 3 4 5 6 7 8 9 10 11 12 13
000
FTUS43 KOAX 270527
TAFSNY
TAF
KSNY 270527Z 2706/2806 15014KT P6SM SKC
     FM271000 17014KT P6SM BKN015
     FM271500 19015G25KT P6SM SCT080
     FM271900 20020G30KT P6SM VCTS BKN080CB
     FM280100 34012KT P6SM SCT080=

USA.gov is the U.S. government's official web portal to all federal, state and local government web resources and services.